This is the latest recevied weather packets stored in our database for station/object N8BAP. If no packets are shown the sender has not sent any weather packets the latest 10 day(s).
| Time | Temp. | Humidity | Pressure | Rain* | Wind** | Luminosity | Snow |
|---|---|---|---|---|---|---|---|
| 1777337711 | 17.22° C | 94% | 1020.9 hPa | 6.1 mm | - | 0 W/m² | - |
| 1777337409 | 17.22° C | 94% | 1020.8 hPa | 7.11 mm | - | 0 W/m² | - |
| 1777337106 | 17.22° C | 93% | 1020.4 hPa | 7.11 mm | - | 0 W/m² | - |
| 1777336804 | 17.78° C | 93% | 1020.2 hPa | 6.6 mm | - | 0 W/m² | - |
| 1777336503 | 17.78° C | 92% | 1020.1 hPa | 6.6 mm | - | 0 W/m² | - |
| 1777336200 | 17.78° C | 91% | 1020.2 hPa | 6.1 mm | - | 0 W/m² | - |
| 1777335897 | 18.33° C | 90% | 1020.3 hPa | 4.32 mm | - | 0 W/m² | - |
| 1777335594 | 18.33° C | 88% | 1020.2 hPa | 3.05 mm | - | 0 W/m² | - |
| 1777335291 | 18.33° C | 89% | 1020.3 hPa | 3.05 mm | - | 0 W/m² | - |
| 1777334989 | 18.33° C | 90% | 1020.2 hPa | 3.05 mm | - | 0 W/m² | - |
| 1777334686 | 18.33° C | 89% | 1020 hPa | 1.78 mm | - | 0 W/m² | - |
| 1777334383 | 18.33° C | 87% | 1019.7 hPa | 3.05 mm | - | 0 W/m² | - |
| 1777334079 | 18.89° C | 87% | 1019.6 hPa | 3.05 mm | - | 0 W/m² | - |
| 1777333774 | 18.89° C | 86% | 1019.8 hPa | 1.78 mm | - | 0 W/m² | - |
| 1777333471 | 18.89° C | 84% | 1019.7 hPa | 0 mm | - | 0 W/m² | - |
| 1777333168 | 18.89° C | 84% | 1019.7 hPa | 1.27 mm | - | 0 W/m² | - |
| 1777332866 | 18.89° C | 84% | 1019.5 hPa | 1.27 mm | - | 0 W/m² | - |
| 1777332563 | 18.89° C | 85% | 1019.5 hPa | 1.27 mm | - | 0 W/m² | - |
| 1777332261 | 19.44° C | 84% | 1019.5 hPa | 0 mm | - | 0 W/m² | - |
| 1777331957 | 19.44° C | 82% | 1019.2 hPa | 0 mm | - | 1 W/m² | - |
| 1777331655 | 20° C | 78% | 1019.3 hPa | 0 mm | - | 1 W/m² | - |
| 1777331351 | 20° C | 78% | 1019.2 hPa | 1.78 mm | - | 3 W/m² | - |
| 1777331049 | 20° C | 76% | 1019 hPa | 1.78 mm | - | 3 W/m² | - |
| 1777330746 | 20.56° C | 73% | 1019.3 hPa | 0 mm | - | 3 W/m² | - |
| 1777330443 | 21.11° C | 72% | 1019 hPa | 0 mm | - | 3 W/m² | - |
* Rain latest hour (hover to see other rain measurements)
** Current wind speed in m/s (hover to see current wind gust speed)